[[{"header":{"parameterUnit":"m.s-1","parameterCategory":1,"la1":30.2991,"la2":30.254,"lo1":-89.0895,"lo2":-89.0444,"dy":0.0017,"dx":0.0017,"nx":28,"ny":28,"refTime":"2025-01-17T09:00:00:Z","depth":0,"parameterNumber":2,"parameterNumberName":"U-component_of_WINDS"},"data":[0,0,0,0,0,0,0,0,0,0,0,0,0,0,0,0,0,0,0,0,0,0,0,0,0,0,0,0,0,0,0,0,0,0,0,0,0,0,0,0,0,0,0,0,0,0,0,0,0,0,0,0,0,0,0,0,0,0,0.0047,0.0047,0,0.0046,0.0046,0.0046,0.0037,0.0037,0.0036,0.0036,0.0036,0.0036,0.0036,0,0,0,0,0,0,0,0,0,0,0,0,0,0.0041,0.0041,0.0047,0.0047,0.0047,0.0046,0.0046,0.0046,0.0037,0.0037,0.0036,0.0036,0.0036,0.0036,0.0036,0,0,0,0,0,0,0,0,0,0,0,0,0,0.0042,0.0041,0.0047,0.0042,0.0042,0.0046,0.0046,0.0046,0.0037,0.0037,0.0036,0.0036,0.0036,0.0036,0.0036,0.0045,0,0,0.0037,0.0037,0,0,0,0,0,0,0,0,0.0042,0.0042,0.0043,0.0042,0.0042,0.0041,0.0044,0.0046,0.0037,0.0039,0.0036,0.0036,0.0038,0.0038,0.0039,0.0045,0.0045,0.0037,0.0038,0.0038,0.0038,0,0,0,0,0,0,0,0.0042,0.0042,0.0046,0.0043,0.0042,0.004,0.004,0.0044,0.004,0.0039,0.0038,0.0038,0.0038,0.0038,0.0039,0.0045,0.0037,0.0038,0.0038,0.0038,0.006,0.006,0,0,0,0,0,0,0.0043,0.0042,0.0046,0.0046,0.0041,0.0041,0.004,0.0042,0.004,0.004,0.0038,0.0037,0.0038,0.0038,0.0039,0.0049,0.0038,0.0038,0.0038,0.0059,0.006,0.006,0,0,0,0,0,0,0.0042,0.0043,0.0047,0.0044,0.0045,0.0041,0.0043,0.0042,0.0043,0.004,0.0039,0.004,0.0038,0.0038,0.0044,0.0049,0.0038,0.0038,0.0059,0.0059,0.006,0.007,0,0,0,0,0,0,0.0042,0.0043,0.0046,0.0044,0.0045,0.0052,0.0043,0.0042,0.0043,0.0042,0.0041,0.0041,0.0038,0.0043,0.0044,0.0049,0.0039,0.0058,0.0059,0.006,0.007,0.0071,0.0073,0,0,0,0,0,0.0042,0.0049,0.0046,0.0047,0.0049,0.0052,0.0052,0.0048,0.0044,0.0047,0.0045,0.0041,0.0048,0.0044,0.0045,0.005,0.0058,0.0059,0.006,0.0069,0.0071,0.0073,0,0,0,0,0,0,0.0052,0.0049,0.0046,0.0052,0.0052,0.005,0.0054,0.005,0.0052,0.0051,0.0046,0.0046,0.0053,0.0052,0.0047,0.0059,0.0052,0.0053,0.0059,0.0061,0.0063,0.0063,0.0039,0,0,0,0,0,0.0055,0.0057,0.0055,0.0061,0.0061,0.0058,0.0059,0.0056,0.0056,0.0056,0.0055,0.0055,0.0057,0.0059,0.0061,0.0069,0.0069,0.0074,0.0075,0.0077,0.0078,0.0082,0.0084,0.0063,0.0063,0.0063,0,0,0.0061,0.006,0.0062,0.0063,0.0063,0.0066,0.0058,0.0061,0.0064,0.0057,0.0062,0.0061,0.0061,0.0068,0.0071,0.0068,0.0083,0.0078,0.0079,0.0079,0.0083,0.0085,0.0087,0.0064,0.0063,0.0063,0,0,0.0074,0.0073,0.0078,0.0078,0.0077,0.0075,0.0076,0.0075,0.0074,0.0079,0.0074,0.0077,0.0081,0.0081,0.0082,0.0095,0.0091,0.0096,0.0104,0.0109,0.0111,0.0112,0.0117,0.0119,0.0097,0.0097,0.0097,0,0.0081,0.0086,0.0081,0.0085,0.0086,0.0079,0.0085,0.0085,0.0085,0.0086,0.0082,0.0088,0.0088,0.0095,0.0098,0.0099,0.01,0.0096,0.0111,0.0112,0.0114,0.0118,0.012,0.0098,0.0098,0.0098,0.0098,0,0.0095,0.0098,0.0103,0.0103,0.0104,0.0109,0.0106,0.0108,0.0105,0.0103,0.0108,0.0108,0.011,0.0111,0.0108,0.0118,0.0116,0.0112,0.0105,0.0116,0.0121,0.0122,0.0099,0.0098,0.0098,0.0098,0,0,0.0114,0.0112,0.0114,0.0114,0.0113,0.0116,0.012,0.0122,0.0124,0.0124,0.0128,0.0132,0.0128,0.0129,0.0126,0.013,0.0141,0.0125,0.0125,0.0129,0.0153,0.0156,0.0158,0.0139,0.0139,0.0139,0.0153,0,0.0127,0.0134,0.013,0.0138,0.0141,0.0135,0.0139,0.0139,0.0138,0.0141,0.0139,0.0142,0.0136,0.0137,0.014,0.0139,0.0146,0.0138,0.0143,0.0143,0.0143,0.016,0.0164,0.0177,0.0154,0.0155,0.0155,0,0.0142,0.0143,0.0152,0.015,0.0152,0.0155,0.0157,0.0159,0.0159,0.0158,0.0159,0.0155,0.016,0.0153,0.016,0.0155,0.0157,0.0156,0.0157,0.0157,0.015,0.0162,0.0181,0.0183,0.0157,0.0157,0.0157,0,0.0155,0.0159,0.0165,0.0165,0.0164,0.0166,0.0166,0.0166,0.0167,0.0169,0.017,0.0172,0.0173,0.0175,0.0172,0.0167,0.0179,0.0172,0.0179,0.0179,0.0182,0.0182,0.0202,0.0182,0.0182,0.0182,0.0182,0,0.017,0.0175,0.0171,0.0174,0.018,0.0176,0.0182,0.0181,0.0181,0.0184,0.0179,0.0183,0.0178,0.0181,0.0179,0.0185,0.0186,0.0185,0.0185,0.0186,0.0186,0.0187,0.0186,0.0183,0.0183,0.0182,0.0182,0,0.0186,0.0183,0.0189,0.0187,0.0187,0.0191,0.019,0.0193,0.0191,0.0196,0.0197,0.0194,0.0197,0.0195,0.0198,0.0196,0.0205,0.0203,0.0205,0.0204,0.0211,0.0211,0.0233,0.0236,0.0214,0.0214,0.0214,0,0.0196,0.02,0.0198,0.02,0.02,0.0203,0.0205,0.0201,0.0202,0.0203,0.0206,0.0209,0.0211,0.0217,0.0216,0.0218,0.0217,0.0224,0.0217,0.0218,0.0217,0.0217,0.0218,0.0226,0.0226,0.0226,0.0226,0,0.0213,0.0212,0.0214,0.0215,0.0217,0.0219,0.0219,0.0221,0.0217,0.022,0.0223,0.0225,0.0228,0.0231,0.0233,0.0233,0.0229,0.0229,0.023,0.0232,0.0233,0.0233,0.0209,0.0228,0.0228,0.0228,0.0228,0.0228,0.0227,0.023,0.023,0.0232,0.0233,0.0234,0.0237,0.0235,0.0238,0.024,0.0238,0.0242,0.0242,0.0245,0.0245,0.0249,0.0246,0.0248,0.0249,0.025,0.0251,0.0232,0.0249,0.0249,0.0249,0.0249,0.0249,0,0.0244,0.0244,0.0246,0.0248,0.025,0.0246,0.0247,0.0249,0.0252,0.0253,0.0255,0.0259,0.0262,0.0261,0.0264,0.0267,0.0265,0.0268,0.0268,0.0268,0.0253,0.0252,0.0269,0.0269,0.0269,0.0269,0.0269,0.0269,0.0254,0.026,0.0258,0.0264,0.0263,0.0267,0.0268,0.0269,0.027,0.0274,0.0277,0.0276,0.0276,0.0279,0.0281,0.0281,0.0283,0.0286,0.0285,0.0271,0.0269,0.0267,0.0266,0.0286,0.0286,0.03,0.03,0.03]},{"header":{"parameterUnit":"m.s-1","parameterCategory":1,"la1":30.2991,"la2":30.254,"lo1":-89.0895,"lo2":-89.0444,"dy":0.0017,"dx":0.0017,"nx":28,"ny":28,"refTime":"2025-01-17T09:00:00:Z","depth":0,"parameterNumber":3,"parameterNumberName":"V-component_of_WINDS"},"data":[0,0,0,0,0,0,0,0,0,0,0,0,0,0,0,0,0,0,0,0,0,0,0,0,0,0,0,0,0,0,0,0,0,0,0,0,0,0,0,0,0,0,0,0,0,0,0,0,0,0,0,0,0,0,0,0,0,0,-2.1053,-2.1054,0,-2.1184,-2.1185,-2.1187,-2.1209,-2.1208,-2.1206,-2.1205,-2.134,-2.1345,-2.135,0,0,0,0,0,0,0,0,0,0,0,0,0,-2.0822,-2.0826,-2.1052,-2.1054,-2.1056,-2.1184,-2.1185,-2.1187,-2.1209,-2.1207,-2.1206,-2.1205,-2.1339,-2.1344,-2.135,0,0,0,0,0,0,0,0,0,0,0,0,0,-2.0935,-2.0827,-2.1052,-2.1082,-2.1086,-2.1183,-2.1185,-2.1188,-2.1209,-2.1207,-2.1206,-2.1204,-2.1337,-2.1344,-2.1351,-2.1428,0,0,-2.1372,-2.1375,0,0,0,0,0,0,0,0,-2.0928,-2.0943,-2.1076,-2.108,-2.1085,-2.1178,-2.1154,-2.1268,-2.121,-2.1162,-2.1205,-2.1203,-2.1288,-2.1299,-2.1327,-2.1434,-2.144,-2.1373,-2.1377,-2.138,-2.1382,0,0,0,0,0,0,0,-2.092,-2.0937,-2.1104,-2.1078,-2.1083,-2.1089,-2.1103,-2.1176,-2.1233,-2.1166,-2.1168,-2.1183,-2.129,-2.132,-2.1331,-2.1442,-2.1373,-2.1379,-2.1383,-2.1386,-2.162,-2.1622,0,0,0,0,0,0,-2.0907,-2.0931,-2.11,-2.1108,-2.1001,-2.1095,-2.1111,-2.115,-2.1232,-2.1243,-2.1185,-2.1184,-2.1309,-2.1322,-2.1335,-2.1432,-2.138,-2.1386,-2.139,-2.1618,-2.1621,-2.1623,0,0,0,0,0,0,-2.0902,-2.0922,-2.1095,-2.102,-2.1043,-2.1101,-2.1144,-2.1153,-2.1184,-2.1246,-2.1257,-2.1205,-2.1308,-2.1326,-2.1405,-2.1437,-2.139,-2.1396,-2.1616,-2.1619,-2.1622,-2.1625,0,0,0,0,0,0,-2.0895,-2.092,-2.0949,-2.1021,-2.1047,-2.1162,-2.1146,-2.1157,-2.1196,-2.1196,-2.1268,-2.1279,-2.1308,-2.1394,-2.1412,-2.1446,-2.1401,-2.1613,-2.1617,-2.1621,-2.1622,-2.1627,-2.1632,0,0,0,0,0,-2.0887,-2.0945,-2.0951,-2.0971,-2.1084,-2.1164,-2.1179,-2.1212,-2.1198,-2.1229,-2.1269,-2.1276,-2.143,-2.1402,-2.1422,-2.1458,-2.1611,-2.1616,-2.1621,-2.162,-2.1626,-2.1632,0,0,0,0,0,0,-2.0876,-2.0955,-2.0962,-2.1045,-2.1097,-2.1167,-2.1206,-2.1217,-2.1275,-2.1273,-2.1312,-2.1328,-2.1405,-2.144,-2.1407,-2.1538,-2.152,-2.1529,-2.1512,-2.1519,-2.1524,-2.1514,-2.1407,0,0,0,0,0,-2.0883,-2.094,-2.1006,-2.1073,-2.1099,-2.1148,-2.1184,-2.1205,-2.1261,-2.1283,-2.1329,-2.1384,-2.1445,-2.1484,-2.1543,-2.1627,-2.1644,-2.1662,-2.1667,-2.1671,-2.1678,-2.1726,-2.1735,-2.1638,-2.1638,-2.1638,0,0,-2.0898,-2.0948,-2.0982,-2.1072,-2.1115,-2.1174,-2.1167,-2.1229,-2.1273,-2.1293,-2.1371,-2.1407,-2.147,-2.1552,-2.1591,-2.1583,-2.1709,-2.1677,-2.1679,-2.1685,-2.1731,-2.1741,-2.1749,-2.1641,-2.1641,-2.164,0,0,-2.0956,-2.1,-2.106,-2.1104,-2.117,-2.1202,-2.1217,-2.1286,-2.131,-2.1389,-2.1405,-2.1459,-2.1562,-2.1607,-2.1644,-2.172,-2.1729,-2.1738,-2.1765,-2.1811,-2.1818,-2.1825,-2.1853,-2.1863,-2.1745,-2.1745,-2.1745,0,-2.0967,-2.1056,-2.109,-2.1152,-2.1192,-2.1212,-2.1274,-2.1315,-2.1397,-2.1424,-2.1414,-2.1546,-2.159,-2.1683,-2.1702,-2.1731,-2.1749,-2.173,-2.1814,-2.1822,-2.1829,-2.1856,-2.1866,-2.1746,-2.1746,-2.1746,-2.1746,0,-2.1067,-2.1128,-2.1169,-2.1248,-2.1292,-2.1354,-2.1398,-2.1438,-2.1456,-2.149,-2.157,-2.1624,-2.1695,-2.1719,-2.1736,-2.1815,-2.1809,-2.1807,-2.1789,-2.1838,-2.1864,-2.1875,-2.1747,-2.1747,-2.1746,-2.1746,0,0,-2.1121,-2.1218,-2.1232,-2.1269,-2.1343,-2.1392,-2.1455,-2.1524,-2.1559,-2.1615,-2.1669,-2.1757,-2.1756,-2.1797,-2.182,-2.1861,-2.1919,-2.1854,-2.1856,-2.1864,-2.201,-2.2011,-2.2022,-2.1925,-2.1927,-2.1929,-2.2004,0,-2.1188,-2.1301,-2.1334,-2.1429,-2.1487,-2.1508,-2.1563,-2.1615,-2.1648,-2.1703,-2.174,-2.1802,-2.1795,-2.1821,-2.1862,-2.1903,-2.1948,-2.1898,-2.1977,-2.1979,-2.196,-2.2036,-2.2037,-2.2106,-2.2015,-2.2016,-2.2018,0,-2.1281,-2.1339,-2.144,-2.1508,-2.1533,-2.1582,-2.1649,-2.1701,-2.176,-2.1782,-2.1829,-2.1849,-2.1916,-2.1895,-2.1989,-2.1954,-2.1989,-2.2014,-2.2017,-2.2026,-2.2001,-2.2047,-2.2128,-2.2138,-2.2034,-2.2033,-2.2032,0,-2.1311,-2.1414,-2.1488,-2.1518,-2.1599,-2.1633,-2.1669,-2.1727,-2.1767,-2.1826,-2.1852,-2.1918,-2.1954,-2.2005,-2.2042,-2.2023,-2.2133,-2.2115,-2.2153,-2.2153,-2.2176,-2.2174,-2.2264,-2.2197,-2.2197,-2.2197,-2.2197,0,-2.1382,-2.1443,-2.1503,-2.1548,-2.1617,-2.1655,-2.1723,-2.176,-2.1811,-2.1865,-2.1887,-2.1937,-2.1983,-2.2039,-2.2069,-2.2143,-2.2159,-2.2179,-2.2186,-2.2177,-2.2174,-2.22,-2.2196,-2.22,-2.2199,-2.2199,-2.2198,0,-2.1427,-2.1469,-2.1551,-2.1621,-2.164,-2.1689,-2.1749,-2.1794,-2.1829,-2.1897,-2.1915,-2.1969,-2.2037,-2.2079,-2.2165,-2.2185,-2.2266,-2.2271,-2.2246,-2.2249,-2.2285,-2.2281,-2.2395,-2.2412,-2.2334,-2.2335,-2.2335,0,-2.147,-2.1518,-2.1593,-2.163,-2.1666,-2.1726,-2.1767,-2.1806,-2.1848,-2.1921,-2.1958,-2.2026,-2.2084,-2.2191,-2.2238,-2.2304,-2.2312,-2.2347,-2.2322,-2.2311,-2.2313,-2.2309,-2.2315,-2.2351,-2.2352,-2.2352,-2.2353,0,-2.1542,-2.1561,-2.1619,-2.1685,-2.1733,-2.1787,-2.184,-2.187,-2.1919,-2.1965,-2.2034,-2.2078,-2.2166,-2.2235,-2.2305,-2.2342,-2.2356,-2.236,-2.2373,-2.2364,-2.2347,-2.2357,-2.2257,-2.2358,-2.2357,-2.2357,-2.2356,-2.2356,-2.1588,-2.1631,-2.1691,-2.1756,-2.18,-2.185,-2.1896,-2.1937,-2.1995,-2.207,-2.209,-2.2162,-2.2222,-2.2318,-2.2357,-2.2415,-2.241,-2.2428,-2.2432,-2.2436,-2.2437,-2.2338,-2.2428,-2.2427,-2.2427,-2.2427,-2.2427,0,-2.1661,-2.1701,-2.176,-2.1834,-2.1885,-2.1893,-2.1954,-2.1996,-2.2059,-2.2114,-2.217,-2.225,-2.2317,-2.237,-2.2439,-2.2475,-2.2483,-2.2492,-2.2489,-2.2498,-2.2437,-2.242,-2.2484,-2.2484,-2.2484,-2.2484,-2.2484,-2.2484,-2.1705,-2.178,-2.1806,-2.1903,-2.1942,-2.2013,-2.2047,-2.2094,-2.2137,-2.2226,-2.2281,-2.2315,-2.237,-2.2443,-2.2505,-2.2519,-2.2543,-2.2551,-2.2566,-2.2508,-2.2502,-2.2496,-2.248,-2.2556,-2.2556,-2.2622,-2.2623,-2.2623]}]]